QPF
0.03 0.02 0.01 0.00 0.00 0.00 0.00 0.00 0.00 0.00 0.00 0.01 0.00 0.00 0.00 0.00 0.00 0.00 0.00 0.00 0.00 0.00 0.00 0.00 0.00 0.00 0.00 0.00 0.00 0.00 0.00 0.00 0.00 0.00 0.00 0.00 0.00 0.00 0.00 0.00 0.00 0.00 0.00 0.00 0.00
0.03 0.04 0.03 0.01 0.00 0.00 0.00 0.00 0.00 0.00 0.00 0.00 0.00 0.00 0.00 0.00 0.00 0.00 0.00 0.00 0.00 0.00 0.00 0.00 0.00 0.00 0.00 0.00 0.00 0.00 0.00 0.00 0.00 0.00 0.00 0.00 0.00 0.00 0.00 0.00 0.00 0.00 0.00 0.00 0.00
0.02 0.04 0.05 0.05 0.02 0.01 0.01 0.00 0.00 0.00 0.00 0.00 0.00 0.00 0.00 0.00 0.00 0.00 0.00 0.00 0.01 0.01 0.01 0.00 0.00 0.00 0.00 0.00 0.00 0.00 0.00 0.00 0.00 0.00 0.00 0.00 0.00 0.00 0.00 0.00 0.00 0.00 0.00 0.00 0.00
0.01 0.02 0.05 0.07 0.02 0.00 0.00 0.00 0.00 0.00 0.00 0.00 0.00 0.00 0.00 0.00 0.00 0.00 0.00 0.00 0.00 0.00 0.00 0.00 0.00 0.00 0.00 0.00 0.00 0.00 0.00 0.00 0.00 0.00 0.00 0.00 0.00 0.00 0.00 0.00 0.00 0.00 0.00 0.00 0.00
0.00 0.00 0.02 0.06 0.03 0.02 0.01 0.00 0.00 0.00 0.01 0.00 0.00 0.00 0.00 0.00 0.00 0.00 0.00 0.00 0.00 0.00 0.00 0.00 0.00 0.00 0.00 0.00 0.00 0.00 0.00 0.00 0.00 0.00 0.00 0.00 0.00 0.00 0.00 0.00 0.00 0.00 0.00 0.00 0.00
0.00 0.00 0.01 0.02 0.02 0.02 0.01 0.00 0.00 0.01 0.01 0.00 0.00 0.00 0.00 0.00 0.00 0.00 0.00 0.00 0.00 0.00 0.00 0.00 0.00 0.00 0.00 0.00 0.00 0.00 0.00 0.00 0.00 0.00 0.00 0.00 0.00 0.00 0.00 0.00 0.00 0.00 0.00 0.00 0.00
0.00 0.00 0.02 0.10 0.11 0.06 0.02 0.01 0.00 0.00 0.00 0.00 0.00 0.00 0.00 0.00 0.00 0.00 0.00 0.00 0.00 0.00 0.00 0.00 0.00 0.00 0.00 0.00 0.00 0.00 0.00 0.00 0.00 0.00 0.00 0.00 0.00 0.00 0.00 0.00 0.00 0.00 0.00 0.00 0.00
0.00 0.00 0.02 0.05 0.13 0.15 0.06 0.01 0.00 0.00 0.00 0.00 0.00 0.00 0.00 0.00 0.00 0.00 0.00 0.00 0.00 0.00 0.00 0.00 0.00 0.00 0.00 0.00 0.00 0.00 0.00 0.00 0.00 0.00 0.00 0.00 0.00 0.00 0.00 0.00 0.00 0.00 0.00 0.00 0.00
0.00 0.00 0.01 0.04 0.09 0.08 0.06 0.02 0.01 0.00 0.00 0.00 0.00 0.00 0.00 0.00 0.00 0.00 0.00 0.00 0.00 0.00 0.00 0.00 0.00 0.00 0.00 0.01 0.01 0.00 0.01 0.00 0.00 0.00 0.00 0.00 0.01 0.00 0.00 0.00 0.00 0.00 0.00 0.00 0.00
0.00 0.00 0.00 0.03 0.08 0.06 0.05 0.03 0.01 0.00 0.00 0.00 0.00 0.00 0.00 0.00 0.00 0.00 0.00 0.00 0.00 0.00 0.00 0.00 0.00 0.00 0.00 0.02 0.02 0.00 0.00 0.00 0.00 0.00 0.00 0.02 0.01 0.00 0.00 0.00 0.00 0.00 0.00 0.00 0.00
0.00 0.00 0.00 0.02 0.07 0.05 0.04 0.03 0.00 0.00 0.00 0.00 0.00 0.00 0.00 0.00 0.00 0.00 0.00 0.00 0.00 0.00 0.00 0.01 0.01 0.01 0.00 0.00 0.00 0.00 0.00 0.00 0.00 0.00 0.00 0.00 0.00 0.00 0.00 0.00 0.00 0.00 0.00 0.00 0.00
0.00 0.00 0.00 0.06 0.12 0.09 0.03 0.01 0.00 0.00 0.00 0.00 0.00 0.00 0.00 0.00 0.00 0.00 0.00 0.00 0.00 0.00 0.00 0.01 0.00 0.00 0.00 0.00 0.00 0.00 0.00 0.00 0.00 0.00 0.00 0.00 0.00 0.00 0.00 0.00 0.02 0.03 0.01 0.00 0.00
0.01 0.25 0.05 0.03 0.11 0.14 0.09 0.03 0.00 0.00 0.00 0.00 0.00 0.00 0.00 0.00 0.00 0.00 0.00 0.00 0.00 0.00 0.00 0.00 0.00 0.00 0.00 0.00 0.00 0.00 0.00 0.00 0.00 0.00 0.01 0.01 0.01 0.00 0.00 0.00 0.04 0.10 0.03 0.00 0.00
0.01 0.31 0.21 0.05 0.15 0.10 0.07 0.01 0.00 0.00 0.00 0.00 0.00 0.00 0.00 0.00 0.00 0.00 0.00 0.00 0.00 0.00 0.00 0.00 0.00 0.00 0.00 0.00 0.01 0.02 0.00 0.01 0.02 0.07 0.05 0.03 0.07 0.01 0.00 0.00 0.00 0.02 0.02 0.01 0.01
0.00 0.07 0.32 0.20 0.08 0.06 0.01 0.00 0.00 0.00 0.00 0.00 0.00 0.00 0.00 0.00 0.00 0.00 0.00 0.00 0.00 0.00 0.00 0.00 0.00 0.00 0.00 0.00 0.03 0.03 0.01 0.04 0.06 0.07 0.07 0.03 0.18 0.07 0.01 0.01 0.00 0.00 0.00 0.01 0.00
0.01 0.02 0.20 0.13 0.01 0.00 0.00 0.00 0.00 0.00 0.00 0.00 0.00 0.00 0.00 0.00 0.00 0.00 0.00 0.00 0.00 0.00 0.00 0.00 0.00 0.00 0.00 0.00 0.01 0.01 0.02 0.08 0.06 0.05 0.09 0.05 0.12 0.23 0.11 0.05 0.03 0.02 0.03 0.05 0.02
0.01 0.07 0.17 0.04 0.00 0.00 0.00 0.00 0.00 0.01 0.00 0.00 0.00 0.00 0.00 0.00 0.00 0.00 0.00 0.00 0.00 0.00 0.00 0.00 0.00 0.00 0.00 0.00 0.00 0.00 0.11 0.24 0.23 0.06 0.09 0.32 0.25 0.23 0.18 0.26 0.33 0.09 0.01 0.00 0.00
0.01 0.04 0.21 0.05 0.00 0.00 0.00 0.00 0.00 0.00 0.00 0.00 0.00 0.00 0.00 0.00 0.00 0.00 0.00 0.00 0.00 0.00 0.00 0.00 0.02 0.01 0.01 0.00 0.00 0.00 0.14 0.24 0.17 0.09 0.03 0.09 0.13 0.29 0.26 0.18 0.14 0.03 0.02 0.01 0.00
0.02 0.01 0.04 0.02 0.00 0.00 0.00 0.00 0.00 0.00 0.00 0.00 0.00 0.00 0.00 0.00 0.00 0.00 0.00 0.00 0.00 0.00 0.00 0.01 0.01 0.00 0.00 0.00 0.00 0.00 0.05 0.14 0.15 0.05 0.04 0.13 0.16 0.27 0.40 0.46 0.19 0.13 0.04 0.00 0.00
0.09 0.07 0.01 0.02 0.01 0.00 0.00 0.00 0.00 0.00 0.00 0.00 0.00 0.00 0.00 0.00 0.00 0.00 0.00 0.00 0.00 0.00 0.00 0.01 0.02 0.01 0.00 0.00 0.00 0.01 0.00 0.04 0.10 0.14 0.15 0.14 0.14 0.36 0.32 0.30 0.23 0.10 0.03 0.01 0.01
0.09 0.08 0.04 0.00 0.00 0.00 0.00 0.00 0.00 0.00 0.00 0.00 0.00 0.00 0.00 0.00 0.00 0.00 0.00 0.00 0.00 0.00 0.00 0.00 0.03 0.02 0.02 0.03 0.01 0.01 0.01 0.01 0.02 0.02 0.08 0.06 0.23 0.40 0.25 0.24 0.20 0.14 0.09 0.07 0.09
0.05 0.06 0.03 0.00 0.00 0.00 0.00 0.00 0.00 0.00 0.00 0.00 0.00 0.00 0.00 0.00 0.00 0.00 0.00 0.00 0.00 0.00 0.00 0.00 0.01 0.01 0.00 0.00 0.00 0.00 0.01 0.00 0.02 0.02 0.01 0.03 0.21 0.14 0.18 0.26 0.24 0.17 0.17 0.22 0.12
0.03 0.07 0.04 0.00 0.01 0.00 0.00 0.00 0.00 0.00 0.00 0.00 0.00 0.00 0.00 0.00 0.00 0.00 0.00 0.00 0.00 0.00 0.00 0.00 0.01 0.02 0.01 0.01 0.00 0.00 0.00 0.00 0.00 0.00 0.01 0.04 0.16 0.02 0.03 0.07 0.17 0.18 0.23 0.33 0.36
0.01 0.05 0.06 0.01 0.00 0.00 0.00 0.00 0.00 0.00 0.00 0.00 0.00 0.00 0.00 0.00 0.00 0.00 0.00 0.00 0.00 0.00 0.00 0.00 0.00 0.01 0.02 0.06 0.02 0.00 0.00 0.00 0.00 0.00 0.01 0.05 0.03 0.00 0.00 0.00 0.01 0.03 0.16 0.35 0.31
0.00 0.01 0.01 0.01 0.00 0.00 0.00 0.00 0.00 0.00 0.00 0.00 0.00 0.00 0.00 0.00 0.00 0.00 0.00 0.00 0.00 0.00 0.00 0.00 0.00 0.00 0.00 0.00 0.00 0.00 0.00 0.00 0.00 0.00 0.01 0.02 0.00 0.00 0.00 0.00 0.00 0.00 0.02 0.07 0.13
0.00 0.00 0.00 0.00 0.00 0.00 0.00 0.00 0.00 0.00 0.00 0.00 0.00 0.00 0.00 0.00 0.00 0.00 0.00 0.00 0.00 0.00 0.00 0.00 0.00 0.00 0.00 0.00 0.00 0.00 0.00 0.00 0.00 0.02 0.00 0.00 0.00 0.00 0.00 0.00 0.00 0.00 0.00 0.00 0.01
0.00 0.00 0.00 0.00 0.00 0.00 0.00 0.00 0.00 0.00 0.00 0.00 0.00 0.00 0.00 0.00 0.00 0.00 0.00 0.00 0.00 0.00 0.00 0.00 0.00 0.00 0.00 0.00 0.00 0.00 0.00 0.00 0.00 0.01 0.00 0.00 0.00 0.00 0.00 0.00 0.00 0.00 0.00 0.00 0.00
MSLP
1015.54 1015.09 1015.23 1015.37 1015.44 1015.66 1015.87 1015.78 1015.92 1015.86 1015.82 1016.04 1015.97 1016.33 1015.92 1016.03 1015.95 1015.97 1015.44 1014.82 1014.50 1014.81 1015.06 1014.54 1014.66 1014.62 1014.59 1014.59 1014.31 1014.13 1013.99 1012.89 1012.83 1012.32 1011.32 1010.86 1010.15 1009.63 1009.11 1008.58 1008.29 1007.69 1007.51 1007.29 1006.78
1015.22 1014.78 1014.70 1014.89 1015.00 1015.16 1015.36 1015.54 1015.65 1015.40 1015.60 1015.92 1015.80 1016.06 1015.96 1015.98 1015.60 1014.72 1013.99 1014.38 1014.78 1015.01 1015.17 1014.81 1014.66 1014.59 1014.79 1014.60 1014.46 1014.50 1013.88 1013.06 1012.91 1012.31 1011.61 1011.06 1010.62 1010.34 1010.01 1009.28 1008.68 1008.24 1007.36 1007.35 1007.36
1015.23 1014.78 1014.50 1014.28 1014.45 1014.80 1014.90 1015.25 1015.46 1015.12 1015.32 1015.69 1015.81 1015.84 1015.79 1015.87 1015.23 1013.65 1013.84 1014.37 1014.57 1015.02 1015.12 1014.89 1014.87 1015.16 1015.13 1014.84 1014.51 1014.37 1013.79 1013.51 1012.76 1012.33 1011.95 1011.48 1011.13 1010.95 1010.58 1009.84 1009.38 1008.78 1008.18 1007.79 1007.60
1014.94 1014.69 1014.24 1014.19 1013.63 1014.20 1014.48 1014.76 1015.08 1015.14 1014.85 1015.39 1015.58 1015.72 1015.96 1015.58 1014.73 1013.74 1013.93 1014.21 1014.45 1014.86 1015.12 1014.82 1014.82 1015.22 1015.08 1014.72 1014.30 1013.98 1013.65 1013.30 1012.84 1012.38 1012.10 1011.89 1011.72 1011.42 1010.97 1010.19 1009.90 1009.29 1008.88 1008.22 1008.39
1015.00 1014.52 1014.07 1013.62 1013.43 1013.53 1014.28 1014.50 1014.75 1014.91 1014.86 1015.42 1015.36 1015.69 1015.83 1015.10 1013.91 1013.84 1013.97 1014.41 1014.61 1014.85 1014.84 1014.72 1014.68 1014.87 1014.73 1014.40 1014.02 1013.41 1013.21 1012.80 1012.41 1012.30 1012.13 1012.04 1011.74 1011.52 1010.95 1010.68 1010.27 1009.72 1009.08 1008.44 1008.37
1014.79 1014.29 1013.82 1013.22 1012.83 1013.54 1014.19 1014.30 1014.49 1014.72 1014.88 1014.96 1015.23 1015.68 1015.57 1014.46 1013.64 1013.78 1014.01 1014.36 1014.34 1014.68 1014.63 1014.74 1014.63 1014.80 1014.89 1014.66 1014.50 1014.14 1013.60 1013.02 1012.56 1012.23 1012.11 1011.89 1011.45 1011.29 1010.73 1010.64 1010.01 1009.84 1009.02 1008.66 1008.19
1014.40 1014.15 1013.71 1013.24 1012.83 1013.55 1014.15 1014.30 1014.30 1014.39 1014.81 1014.98 1015.17 1015.24 1014.88 1013.91 1013.71 1014.02 1014.17 1014.17 1014.28 1014.43 1014.39 1014.58 1014.79 1015.30 1015.24 1015.07 1014.53 1014.25 1013.88 1013.25 1012.68 1012.21 1011.75 1011.74 1011.00 1010.49 1010.45 1009.92 1009.70 1009.23 1008.49 1008.12 1007.96
1014.15 1013.90 1013.59 1013.41 1013.47 1013.54 1013.93 1014.19 1014.57 1014.37 1014.78 1015.15 1014.91 1015.15 1014.09 1013.69 1013.94 1014.21 1014.05 1014.04 1014.22 1014.40 1014.63 1014.80 1014.95 1015.47 1015.70 1015.55 1015.17 1015.03 1014.34 1013.42 1012.38 1011.79 1011.14 1010.99 1009.89 1009.62 1009.31 1009.22 1008.88 1008.44 1007.77 1007.26 1007.14
1013.76 1013.63 1013.37 1013.23 1013.19 1013.45 1013.96 1014.41 1014.56 1014.53 1014.85 1014.98 1015.10 1015.02 1013.98 1013.77 1013.95 1013.79 1013.73 1013.75 1013.85 1014.23 1014.57 1014.84 1015.11 1015.62 1015.71 1015.67 1015.60 1015.30 1014.28 1013.37 1012.07 1011.45 1010.80 1010.29 1009.40 1008.75 1008.15 1008.19 1007.80 1007.19 1006.93 1006.82 1006.42
1013.54 1013.31 1013.07 1012.96 1013.12 1013.48 1013.87 1014.28 1014.61 1014.52 1014.80 1014.83 1014.83 1015.35 1014.13 1013.24 1013.28 1013.49 1013.60 1013.75 1013.90 1014.14 1014.67 1015.14 1015.37 1015.51 1015.41 1015.74 1015.59 1014.96 1014.24 1013.36 1012.15 1011.57 1011.20 1010.07 1009.07 1008.54 1008.16 1007.53 1007.08 1006.47 1005.89 1005.96 1005.82
1013.21 1012.84 1012.48 1012.14 1012.31 1013.22 1013.80 1014.45 1015.00 1014.78 1014.35 1013.98 1013.90 1013.58 1013.19 1012.72 1013.37 1013.50 1013.45 1013.83 1014.12 1014.27 1014.61 1014.93 1015.36 1015.14 1014.90 1014.85 1014.68 1014.53 1014.18 1013.16 1011.68 1011.27 1010.82 1009.84 1008.57 1007.62 1007.14 1006.53 1006.26 1006.11 1005.27 1004.96 1004.91
1012.83 1012.23 1010.64 1010.60 1011.48 1012.83 1013.26 1013.21 1012.66 1013.09 1013.64 1013.96 1013.71 1013.44 1013.21 1013.01 1013.06 1013.12 1013.50 1013.90 1013.89 1014.32 1014.69 1015.21 1014.58 1014.23 1014.19 1013.92 1013.78 1013.77 1013.51 1012.43 1011.80 1011.48 1010.95 1009.97 1008.33 1007.36 1006.43 1005.54 1004.99 1004.75 1004.40 1004.14 1004.02
1012.65 1012.19 1010.76 1011.23 1012.25 1012.98 1013.24 1013.02 1012.72 1012.82 1013.18 1013.80 1013.63 1013.19 1013.15 1013.33 1012.77 1012.67 1013.55 1013.52 1013.76 1014.08 1014.25 1014.28 1013.52 1013.23 1013.41 1013.29 1013.51 1013.24 1013.07 1012.58 1012.41 1010.97 1010.90 1010.21 1007.61 1006.39 1004.96 1004.71 1003.99 1004.02 1004.06 1003.98 1003.68
1012.58 1012.31 1012.10 1012.18 1012.91 1013.14 1013.47 1013.06 1013.00 1013.16 1013.28 1013.82 1013.29 1012.79 1013.14 1013.17 1012.98 1012.89 1013.38 1013.81 1013.78 1013.82 1013.95 1013.68 1012.87 1012.72 1012.76 1012.98 1013.38 1012.83 1012.25 1012.29 1012.02 1011.70 1010.48 1009.36 1007.39 1005.08 1004.11 1003.71 1003.57 1003.66 1004.14 1003.48 1003.59
1012.43 1012.42 1012.65 1012.46 1012.59 1012.95 1012.55 1012.72 1013.20 1013.30 1013.16 1013.16 1012.77 1013.11 1012.99 1013.15 1013.16 1013.25 1013.54 1013.99 1014.09 1013.92 1014.29 1013.73 1012.79 1012.53 1012.59 1012.39 1012.61 1011.97 1011.66 1011.97 1011.67 1011.23 1010.57 1008.76 1008.32 1005.45 1004.21 1004.01 1003.62 1003.42 1003.37 1003.23 1003.08
1012.20 1012.15 1012.27 1012.80 1012.66 1012.88 1012.75 1012.95 1013.23 1013.55 1012.96 1012.74 1012.89 1013.06 1013.10 1013.05 1013.03 1013.29 1013.73 1014.15 1013.85 1014.03 1013.99 1013.20 1012.64 1012.72 1011.95 1011.97 1012.17 1011.85 1011.20 1010.78 1010.73 1010.59 1009.52 1007.33 1007.68 1006.50 1006.11 1005.68 1004.77 1003.58 1003.29 1003.22 1003.19
1012.04 1012.04 1012.42 1012.72 1012.51 1012.84 1012.98 1013.11 1013.38 1012.86 1012.85 1012.87 1012.79 1012.99 1013.29 1013.17 1013.02 1013.11 1013.01 1013.38 1013.62 1014.21 1013.62 1012.90 1012.12 1011.98 1012.43 1012.18 1011.48 1011.41 1011.15 1010.12 1010.00 1009.47 1008.23 1007.14 1007.72 1007.06 1006.67 1006.00 1005.40 1004.36 1004.06 1003.70 1003.39
1011.97 1012.03 1012.76 1013.13 1012.82 1012.93 1013.08 1013.23 1012.78 1012.01 1012.11 1011.95 1012.49 1012.83 1013.35 1013.03 1013.10 1012.74 1012.86 1013.02 1013.55 1013.90 1013.86 1013.26 1012.50 1011.96 1012.27 1012.31 1011.93 1011.37 1010.86 1010.06 1009.37 1007.92 1007.61 1007.49 1007.37 1007.41 1006.95 1005.79 1005.39 1004.96 1004.34 1004.14 1003.86
1011.98 1012.68 1013.31 1013.59 1013.27 1013.20 1013.17 1012.89 1012.37 1011.71 1011.51 1011.80 1012.61 1013.19 1013.03 1013.01 1013.19 1012.94 1013.12 1012.72 1012.96 1013.53 1014.01 1013.28 1011.95 1011.21 1011.24 1011.67 1011.89 1010.54 1009.99 1009.55 1008.86 1007.63 1007.36 1008.12 1007.67 1007.57 1007.46 1007.05 1005.96 1005.15 1004.91 1004.65 1004.24
1012.23 1012.91 1013.77 1014.00 1013.80 1013.57 1013.24 1012.46 1011.93 1011.49 1011.30 1011.69 1011.73 1012.04 1012.47 1012.83 1013.02 1013.04 1012.66 1012.78 1012.90 1013.24 1013.56 1013.67 1012.84 1011.53 1010.93 1011.31 1010.85 1010.70 1009.86 1009.13 1008.40 1007.80 1007.75 1008.09 1008.21 1008.43 1008.03 1007.38 1006.21 1005.50 1005.32 1005.04 1004.47
1012.59 1013.36 1014.41 1014.38 1014.07 1013.59 1013.17 1012.33 1012.07 1011.86 1011.47 1011.36 1010.89 1011.29 1011.72 1012.17 1012.59 1012.91 1012.95 1012.94 1012.96 1012.80 1013.02 1013.15 1013.17 1011.22 1011.05 1010.93 1010.75 1009.96 1009.16 1008.64 1008.36 1007.93 1008.03 1008.47 1009.16 1008.95 1008.61 1007.76 1006.59 1006.24 1005.82 1005.29 1004.40
1013.22 1014.10 1014.93 1014.73 1014.49 1013.79 1012.97 1012.28 1012.32 1012.06 1011.85 1011.40 1011.15 1011.30 1011.35 1011.74 1012.21 1012.97 1013.26 1012.75 1012.92 1012.71 1012.49 1012.69 1012.51 1011.52 1010.66 1009.89 1009.71 1009.49 1009.12 1008.26 1008.11 1008.59 1008.32 1008.90 1009.96 1009.55 1008.68 1008.06 1007.49 1006.99 1006.44 1005.50 1004.45
1013.86 1014.80 1015.21 1015.15 1014.50 1013.69 1012.96 1012.54 1012.29 1012.13 1011.91 1011.57 1011.49 1011.64 1011.72 1011.84 1012.14 1012.38 1013.20 1012.70 1012.62 1012.44 1012.30 1012.16 1011.86 1011.39 1010.13 1009.86 1009.30 1008.99 1008.35 1008.25 1008.33 1008.58 1009.23 1009.18 1010.11 1009.52 1008.88 1008.66 1008.38 1007.91 1007.10 1006.58 1006.11
1013.97 1014.99 1015.61 1015.32 1014.40 1013.32 1012.78 1012.40 1012.48 1012.49 1012.25 1012.02 1011.95 1011.89 1011.97 1011.95 1012.17 1012.28 1012.97 1012.54 1012.41 1012.27 1012.12 1012.29 1011.74 1011.34 1011.27 1011.21 1010.94 1010.16 1009.11 1008.85 1008.86 1009.41 1010.26 1010.38 1010.61 1010.00 1009.47 1009.30 1009.11 1008.80 1008.26 1007.38 1007.42
1013.45 1014.27 1014.48 1014.83 1014.09 1013.22 1012.61 1012.27 1012.43 1012.59 1012.48 1012.26 1012.23 1012.30 1012.66 1012.48 1012.29 1012.35 1012.73 1012.63 1012.15 1011.87 1011.73 1011.77 1011.82 1011.41 1011.25 1011.07 1010.81 1010.64 1010.39 1010.26 1009.98 1010.30 1010.60 1011.28 1011.11 1011.25 1010.78 1010.49 1010.23 1009.69 1008.99 1008.43 1007.61
1013.02 1013.51 1013.89 1013.80 1013.77 1013.24 1012.79 1012.46 1012.40 1012.55 1012.49 1012.62 1012.50 1012.50 1012.99 1012.95 1013.08 1012.68 1012.61 1012.70 1012.60 1011.98 1011.59 1011.41 1011.90 1011.86 1011.71 1011.31 1011.27 1011.28 1011.50 1011.32 1011.35 1011.41 1011.24 1011.70 1011.91 1012.04 1011.72 1011.35 1010.98 1010.83 1010.33 1009.24 1009.09
1013.04 1012.99 1013.14 1013.68 1013.53 1013.31 1012.59 1012.58 1012.61 1012.79 1013.28 1012.96 1012.88 1013.14 1013.48 1013.64 1013.30 1012.91 1012.69 1012.71 1012.82 1012.64 1012.09 1011.74 1011.80 1011.92 1011.84 1011.47 1011.50 1012.05 1012.65 1012.16 1011.96 1011.83 1011.78 1011.98 1012.65 1012.77 1012.61 1012.33 1012.09 1011.67 1011.26 1011.24 1010.86
Thickness
5584 5586 5582 5577 5573 5567 5562 5560 5558 5559 5559 5557 5557 5555 5557 5558 5561 5564 5568 5575 5580 5578 5579 5587 5585 5586 5587 5586 5589 5592 5580 5592 5596 5597 5608 5620 5622 5636 5645 5645 5657 5670 5670 5678 5688
5576 5576 5574 5568 5564 5559 5555 5552 5550 5553 5550 5548 5550 5546 5547 5547 5553 5562 5569 5568 5566 5565 5566 5569 5571 5574 5569 5571 5574 5569 5570 5581 5589 5592 5593 5604 5608 5612 5615 5625 5635 5649 5666 5671 5672
5564 5564 5563 5560 5556 5550 5548 5543 5542 5546 5544 5540 5540 5540 5539 5537 5542 5562 5559 5556 5556 5553 5555 5559 5558 5555 5554 5557 5560 5561 5561 5567 5577 5578 5579 5583 5589 5596 5597 5604 5616 5624 5640 5649 5652
5555 5552 5551 5547 5550 5543 5540 5538 5535 5535 5540 5535 5534 5531 5529 5530 5541 5552 5548 5546 5546 5543 5541 5544 5545 5539 5541 5544 5549 5546 5555 5558 5560 5564 5563 5563 5570 5570 5580 5597 5600 5604 5613 5629 5626
5540 5540 5539 5538 5538 5537 5530 5530 5528 5528 5530 5525 5526 5524 5523 5526 5535 5539 5537 5533 5532 5531 5531 5532 5532 5529 5532 5537 5539 5542 5546 5550 5550 5549 5548 5547 5549 5552 5562 5573 5575 5581 5590 5603 5608
5526 5527 5527 5527 5530 5524 5519 5520 5520 5520 5521 5520 5519 5515 5516 5519 5529 5528 5524 5522 5524 5521 5521 5520 5520 5519 5518 5519 5518 5520 5526 5531 5534 5531 5527 5523 5527 5530 5547 5553 5554 5551 5566 5574 5583
5515 5511 5512 5514 5517 5512 5508 5509 5512 5515 5514 5514 5510 5510 5512 5518 5517 5513 5512 5514 5514 5512 5510 5510 5507 5500 5502 5502 5508 5507 5504 5511 5516 5510 5508 5502 5499 5515 5527 5532 5522 5532 5548 5557 5562
5501 5498 5498 5500 5500 5501 5499 5500 5501 5506 5506 5503 5504 5503 5506 5510 5506 5503 5507 5507 5505 5502 5498 5496 5494 5487 5482 5485 5485 5477 5482 5472 5499 5494 5496 5484 5479 5508 5511 5506 5504 5517 5533 5543 5552
5487 5483 5485 5488 5489 5490 5490 5490 5492 5498 5498 5497 5497 5495 5503 5503 5498 5500 5501 5499 5498 5494 5488 5484 5478 5469 5467 5459 5453 5457 5448 5460 5479 5484 5476 5474 5468 5489 5502 5496 5498 5514 5524 5530 5543
5472 5470 5470 5471 5472 5475 5480 5481 5484 5489 5491 5492 5493 5483 5493 5501 5498 5495 5495 5492 5488 5483 5476 5468 5462 5451 5451 5437 5429 5437 5442 5454 5458 5470 5459 5465 5468 5480 5481 5487 5495 5508 5521 5525 5532
5460 5460 5461 5464 5465 5464 5471 5473 5475 5479 5488 5493 5494 5497 5499 5501 5492 5489 5491 5483 5478 5473 5459 5461 5447 5439 5452 5457 5459 5456 5450 5450 5468 5471 5463 5463 5473 5484 5486 5488 5493 5503 5518 5524 5531
5452 5456 5468 5470 5466 5460 5468 5479 5492 5489 5484 5488 5491 5492 5492 5490 5490 5488 5484 5478 5476 5462 5463 5450 5446 5464 5471 5474 5471 5464 5454 5456 5466 5467 5465 5461 5467 5484 5490 5498 5504 5513 5519 5526 5534
5446 5453 5465 5463 5457 5458 5465 5476 5480 5484 5490 5485 5485 5486 5484 5484 5488 5488 5480 5480 5476 5470 5468 5459 5474 5481 5478 5472 5464 5461 5451 5453 5454 5472 5464 5456 5470 5487 5503 5509 5516 5518 5518 5522 5531
5440 5448 5450 5453 5453 5456 5460 5471 5475 5480 5481 5478 5483 5485 5482 5482 5480 5484 5480 5477 5477 5472 5474 5471 5485 5483 5477 5467 5466 5447 5472 5467 5460 5450 5455 5480 5476 5509 5513 5518 5520 5520 5517 5523 5530
5435 5441 5444 5449 5456 5458 5469 5471 5473 5480 5499 5485 5485 5481 5482 5480 5480 5478 5478 5473 5466 5473 5470 5464 5477 5480 5472 5476 5472 5467 5475 5462 5458 5456 5462 5482 5479 5502 5520 5516 5519 5523 5527 5529 5536
5430 5438 5443 5445 5451 5456 5464 5469 5475 5477 5496 5478 5481 5477 5476 5479 5479 5479 5475 5472 5476 5470 5470 5469 5481 5478 5480 5486 5479 5479 5477 5473 5465 5465 5479 5506 5490 5503 5494 5496 5504 5528 5532 5533 5536
5425 5435 5440 5444 5454 5456 5463 5471 5473 5489 5484 5473 5477 5479 5468 5473 5480 5482 5487 5479 5475 5460 5462 5475 5479 5488 5472 5472 5485 5481 5474 5493 5489 5485 5490 5500 5486 5498 5488 5492 5498 5522 5526 5533 5540
5424 5434 5437 5441 5450 5458 5465 5468 5482 5493 5480 5495 5487 5485 5462 5481 5476 5491 5488 5482 5479 5466 5454 5457 5465 5482 5475 5471 5475 5470 5478 5500 5506 5524 5517 5506 5514 5496 5496 5513 5516 5520 5528 5532 5539
5425 5430 5433 5439 5450 5458 5469 5474 5479 5482 5494 5487 5480 5462 5477 5482 5477 5487 5468 5488 5491 5477 5459 5472 5488 5500 5492 5481 5474 5491 5498 5493 5504 5518 5523 5505 5502 5500 5494 5492 5514 5526 5528 5532 5542
5425 5430 5432 5437 5448 5459 5469 5479 5488 5495 5495 5492 5486 5494 5480 5474 5477 5473 5493 5491 5488 5483 5476 5468 5469 5490 5501 5489 5492 5487 5497 5508 5512 5524 5524 5515 5506 5503 5497 5496 5521 5528 5530 5537 5550
5424 5430 5429 5438 5450 5464 5466 5486 5487 5490 5494 5498 5506 5504 5501 5493 5490 5478 5487 5491 5487 5488 5485 5478 5469 5503 5501 5489 5485 5500 5504 5513 5513 5518 5520 5513 5504 5493 5493 5502 5523 5524 5529 5539 5558
5422 5430 5430 5441 5453 5463 5472 5488 5479 5488 5491 5497 5502 5502 5506 5504 5500 5472 5470 5491 5487 5489 5485 5485 5485 5488 5501 5516 5512 5514 5508 5527 5522 5518 5516 5507 5499 5501 5505 5511 5519 5523 5531 5546 5562
5423 5426 5434 5442 5457 5466 5480 5486 5491 5491 5495 5498 5498 5501 5503 5503 5495 5498 5468 5496 5494 5494 5493 5496 5490 5483 5502 5515 5522 5520 5530 5534 5532 5526 5510 5509 5503 5517 5518 5517 5516 5521 5531 5540 5551
5431 5434 5436 5445 5462 5479 5486 5490 5489 5490 5494 5497 5497 5500 5501 5504 5503 5502 5465 5499 5498 5498 5499 5495 5505 5499 5495 5498 5500 5508 5529 5529 5524 5517 5507 5500 5505 5515 5519 5519 5521 5524 5525 5537 5538
5446 5447 5453 5454 5465 5483 5496 5502 5496 5491 5497 5499 5497 5499 5483 5498 5504 5504 5481 5493 5504 5508 5506 5507 5500 5514 5516 5518 5515 5515 5518 5519 5520 5518 5503 5508 5511 5508 5513 5515 5517 5525 5532 5534 5548
5462 5461 5466 5470 5476 5487 5492 5503 5505 5500 5505 5499 5499 5504 5495 5493 5488 5499 5500 5495 5497 5508 5513 5516 5504 5509 5510 5520 5517 5512 5509 5513 5509 5506 5515 5511 5507 5509 5513 5515 5520 5520 5528 5541 5543
5468 5474 5480 5477 5483 5490 5505 5508 5510 5507 5499 5505 5508 5501 5497 5490 5494 5496 5500 5501 5501 5501 5506 5514 5512 5506 5509 5524 5521 5495 5497 5510 5514 5516 5515 5508 5510 5510 5508 5511 5515 5522 5530 5532 5541